Location: *
(47.7690°S, 170.7868°W)
Time: 07:18:08
(UTC+00:00)

Daily predictions for brighter satellites

Satellite Brightness Start Highest point End
(mag) Time Altitude Azimuth Time Altitude Azimuth Time Altitude Azimuth
SL-16 R/B 4.4 12:08:13 10° SSW 12:10:33 20° S 12:10:33 20° S
Cosmos 2297 Rocket 4.3 12:34:21 23° SE 12:34:21 23° SE 12:36:30 10° SE
Cosmos 2227 Rocket 4.0 12:55:21 28° SE 12:55:21 28° SE 12:58:04 10° SE
Cosmos 2263 Rocket 4.3 13:17:44 18° E 13:17:44 18° E 13:21:21 10° ESE
ADEOS Rocket 4.2 13:13:44 10° SSE 13:18:03 34° ESE 13:18:03 34° ESE
Cosmos 2219 4.5 13:22:06 38° SSE 13:22:06 38° SSE 13:25:31 10° SSE
USA 215 3.8 13:14:48 10° SE 13:20:43 53° S 13:20:43 53° S
NOSS 3-4 (A) 4.2 13:23:06 10° SW 13:34:53 21° ENE 13:36:48 10° NE
NOSS 3-4 (C) 4.1 13:23:14 10° SW 13:34:40 24° ENE 13:36:56 10° NE
SL-16 R/B 3.6 13:26:34 10° SSE 13:32:19 36° E 13:32:56 35° ENE
ATLAS CENTAUR R/B 4.4 13:35:12 11° S 13:35:12 11° S 13:35:40 10° S
ATLAS 2AS CENTAUR R/B 3.8 13:27:27 10° SW 13:33:51 42° SE 13:40:39 10° ENE
NOSS 3-3 (A) 4.4 13:40:44 78° SW 13:40:44 78° SW 13:48:03 10° SE
NOSS 3-3 (C) 4.4 13:40:49 79° SSW 13:40:49 79° SSW 13:48:08 10° SE
Meteor 2-3 Rocket 4.3 13:54:12 52° S 13:54:12 52° S 13:58:30 10° S
Meteor 2-19 Rocket 4.4 14:06:19 77° ENE 14:06:23 77° E 14:12:32 10° SSE
CZ-2C R/B 3.9 14:09:50 28° SSW 14:09:50 28° SSW 14:12:02 10° SSW
Cosmos 1092 Rocket 4.4 14:09:08 48° NE 14:10:35 60° E 14:16:50 10° SSE
Lacrosse 5 rocket 3.4 14:16:39 23° SE 14:16:39 23° SE 14:18:15 10° SE
Cosmos 2297 Rocket 3.4 14:16:09 31° SSW 14:16:09 31° SSW 14:20:24 10° SSE
SL-06 R/B (2) 4.4 14:16:57 61° SSW 14:17:45 80° SE 14:27:52 10° NE
Cosmos 1867 3.6 14:19:03 73° SE 14:19:03 73° SE 14:23:57 10° SE
SL-4 R/B 3.1 14:21:05 52° SSE 14:21:05 52° SSE 14:25:32 10° E
Cosmos 2251 Rocket 4.2 14:21:50 44° NE 14:22:38 47° ENE 14:27:43 10° SSE
Okean 3 Rocket 4.3 14:28:44 50° S 14:28:44 50° S 14:32:11 10° S
FENGYUN 3A 3.8 14:29:56 63° SW 14:29:56 63° SW 14:34:40 10° SSW
Timation 2 Rocket 4.3 14:31:35 50° WSW 14:31:49 50° SW 14:37:55 10° SSE
ALOS 3.1 14:37:36 40° SSW 14:37:36 40° SSW 14:40:42 10° SSW
Cosmos 2227 Rocket 3.3 14:37:09 30° SW 14:37:09 30° SW 14:41:53 10° SSE
Cosmos 2195 Rocket 4.4 14:39:13 52° NNW 14:40:53 87° W 14:47:09 10° S
Cosmos 1862 4.3 14:43:41 41° S 14:43:41 41° S 14:46:27 10° S
Cosmos 2082 4.1 14:42:45 46° SW 14:42:46 46° SW 14:48:17 10° SSE
Cosmos 2228 Rocket 4.5 14:46:05 10° S 14:50:19 39° ESE 14:54:30 10° NE
Cosmos 1743 Rocket 4.5 14:49:12 26° NNE 14:51:24 49° E 14:55:46 10° SSE
Cosmos 2227 4.3 14:50:21 45° N 14:52:11 77° ENE 14:57:57 10° SSE
UNK 4.2 14:48:21 10° S 14:52:20 47° SW 14:52:20 47° SW
Cosmos 2292 Rocket 4.4 14:50:26 32° N 14:52:56 74° E 14:59:39 10° SSE
Cosmos 1428 Rocket 4.4 14:53:07 41° NNW 14:55:28 79° W 15:01:44 10° S
Cosmos 2026 Rocket 3.9 14:54:57 37° NNW 14:57:43 78° W 15:04:11 10° S
Cosmos 1809 Rocket 4.4 14:54:38 28° N 14:58:12 87° E 15:04:30 10° S
Cosmos 614 Rocket 3.8 14:58:17 54° NNW 14:59:29 87° WSW 15:04:45 10° SSE
Cosmos 407 Rocket 4.5 14:56:24 17° N 15:00:15 47° ENE 15:05:25 10° SSE
Cosmos 2263 Rocket 2.1 14:59:27 52° NW 15:00:52 78° WSW 15:06:35 10° SSE
Meteor 2-6 Rocket 4.3 14:57:06 10° SSW 15:02:24 48° W 15:02:24 48° W
USA 215 4.2 14:57:27 10° ESE 15:03:30 40° S 15:08:04 17° WSW
ADEOS Rocket 3.3 14:59:19 10° S 15:04:29 39° WSW 15:05:00 38° WSW
Cosmos 1553 Rocket 3.9 15:00:52 10° S 15:07:06 86° E 15:13:12 10° N
MINOTAUR 4 R/B 4.3 15:03:28 10° SSE 15:07:08 69° ENE 15:07:41 57° NNE
Cosmos 1515 Rocket 3.6 15:03:04 10° SSW 15:07:20 58° W 15:07:20 58° W
PSLV R/B 4.0 15:11:40 45° WSW 15:11:40 45° WSW 15:15:20 10° SSW
SL-16 R/B 2.9 15:10:05 10° S 15:16:01 46° WSW 15:18:02 35° WNW
SJ-6F 4.4 15:15:19 31° N 15:17:15 66° WNW 15:21:32 10° SSW
Cosmos 1484 Rocket 4.0 15:21:47 26° SW 15:21:47 26° SW 15:23:52 10° SSW
NOSS 3-4 (A) 4.4 15:14:50 10° SW 15:22:43 27° NW 15:26:15 10° N
NOSS 3-4 (C) 4.4 15:14:57 10° SW 15:22:31 28° NW 15:26:24 10° N
YAOGAN 6 3.5 15:18:36 10° NNE 15:22:02 49° ESE 15:25:34 10° S
DELTA 2 DEB (DPAF) 4.1 15:18:00 10° SSE 15:22:34 86° ENE 15:25:34 21° NNW
ATLAS 2AS CENTAUR R/B 2.7 15:18:18 10° SW 15:25:06 62° WNW 15:32:22 10° NNE
Cosmos 1943 3.4 15:20:19 10° SW 15:25:47 48° WNW 15:31:14 10° N
SL-24 R/B 3.9 15:24:41 10° SSE 15:28:35 72° ENE 15:31:22 17° N
Cosmos 1603 4.0 15:26:58 10° SW 15:32:20 43° WNW 15:37:37 10° N
Cosmos 1655 Rocket 4.3 15:26:15 10° N 15:32:32 71° E 15:38:58 10° SSE
Cosmos 1707 Rocket 4.4 15:31:54 10° S 15:36:15 52° ESE 15:40:35 10° NNE
CZ-4B R/B 3.6 15:33:38 10° NNE 15:37:20 87° W 15:41:08 10° SSW
SJ-12 3.8 15:34:53 10° N 15:38:59 74° WNW 15:43:08 10° SSW
CBERS 1 LM4 rocket 4.4 15:35:00 10° N 15:40:01 64° WNW 15:44:57 10° SSW
H-2A R/B 2.7 15:37:32 10° NNE 15:41:25 87° W 15:45:18 10° SSW
Meteor 1-28 Rocket 4.4 15:43:20 10° SSW 15:46:27 24° WSW 15:46:34 24° WSW
Cosmos 1805 Rocket 3.5 15:42:37 10° NNW 15:47:08 76° W 15:51:41 10° S
Sich 1 3.1 15:42:44 10° N 15:47:11 86° E 15:51:39 10° S
CZ-4B R/B 4.1 15:44:01 10° NE 15:48:24 50° ESE 15:52:44 10° S
Cosmos 1844 Rocket 3.2 15:43:16 10° N 15:48:45 60° ENE 15:54:19 10° SSE
Cosmos 1500 Rocket 4.0 15:46:34 24° NW 15:48:52 43° WSW 15:53:12 10° S
RESURS DK-1 3.2 15:45:26 10° SSW 15:49:35 53° ESE 15:53:41 10° NE
Cosmos 1633 Rocket 4.3 15:46:01 10° NNE 15:50:13 44° E 15:54:27 10° SSE
IKONOS-2 4.5 15:47:32 10° S 15:51:54 69° WSW 15:56:11 10° NNW
ADEOS 3.5 15:46:54 10° NNE 15:52:10 78° WNW 15:57:30 10° SSW
Lacrosse 5 rocket 3.0 15:52:14 14° SW 15:54:22 21° S 15:57:17 10° SE
Envisat 3.0 15:51:55 10° N 15:57:00 65° WNW 16:02:09 10° SSW
SL-4 R/B 2.4 15:56:38 15° WSW 16:00:47 87° SSE 16:05:38 10° ENE
Cosmos 2266 Rocket 3.9 15:54:47 10° N 16:00:52 81° W 16:07:08 10° S
Cosmos 1515 3.8 15:59:23 10° SSW 16:03:08 49° W 16:06:49 10° N
Cosmos 1607 4.0 15:58:07 10° NNW 16:04:12 82° NE 16:10:24 10° SE
Cosmos 1763 Rocket 4.1 15:59:21 10° SSW 16:04:39 62° ESE 16:09:57 10° NE
Meteor 1-18 Rocket 4.4 15:59:53 10° S 16:05:56 87° E 16:11:50 10° N
Cosmos 676 Rocket 4.3 16:00:56 10° NNW 16:06:12 74° ENE 16:11:35 10° SSE
S3M 4.2 16:02:32 10° SSW 16:08:44 52° W 16:14:54 10° NNW
Meteor 1-31 Rocket 3.2 16:06:06 10° NNW 16:09:44 39° W 16:13:24 10° SSW
Okean 1 3.3 16:07:42 10° SSW 16:11:47 63° W 16:15:46 10° N
Meteor 1-20 Rocket 4.3 16:06:42 10° NNW 16:12:09 59° WSW 16:17:46 10° S
SJ-7 4.4 16:08:13 10° NNE 16:12:19 89° E 16:16:34 10° SSW
NOAA 11 4.2 16:12:29 10° NNE 16:17:58 90° E 16:23:31 10° SSW
USA 305 3.5 16:16:52 10° NW 16:21:07 55° NE 16:25:23 10° ESE
MOS 1 Rocket 3.6 16:17:44 10° S 16:23:16 78° WSW 16:28:33 10° NNW
Spot 1 4.2 16:21:25 10° S 16:25:39 57° WSW 16:30:04 10° NNW
CZ-2C R/B 3.4 16:22:01 10° NNE 16:27:18 71° ESE 16:32:22 10° S
Cosmos 2228 Rocket 4.2 16:24:45 10° SW 16:28:17 23° W 16:31:48 10° NW
ISS -0.5 16:33:10 10° NE 16:33:44 10° NE 16:34:18 10° ENE
USA 307 3.4 16:29:28 10° NW 16:33:44 60° NE 16:38:01 10° ESE
Cosmos 1844 3.7 16:28:01 10° NNW 16:33:45 80° WSW 16:39:28 10° SSE
Cosmos 1954 Rocket 4.1 16:30:36 10° NNW 16:35:52 64° WSW 16:41:15 10° SSE
Cosmos 1140 Rocket 4.3 16:32:28 10° WNW 16:37:14 34° WSW 16:42:05 10° S
Cosmos 1500 3.7 16:35:17 10° NNW 16:38:59 41° WSW 16:42:45 10° S
Cosmos 1470 Rocket 3.7 16:35:31 10° N 16:39:53 84° E 16:44:19 10° S
Meteor PRIRODA 4.0 16:36:27 10° N 16:40:04 44° W 16:43:43 10° SSW
Cosmos 841 Rocket 4.3 16:35:06 10° SSW 16:40:17 57° ESE 16:45:26 10° NE
Cosmos 1933 Rocket 4.5 16:37:01 10° N 16:41:26 57° E 16:45:55 10° SSE
Cosmos 1340 Rocket 3.0 16:38:27 10° NNW 16:42:18 52° WSW 16:46:15 10° S
Cosmos 407 Rocket 4.5 16:37:42 10° WNW 16:42:26 31° SW 16:47:14 10° S
Cosmos 1666 Rocket 3.9 16:39:18 10° NNW 16:43:34 45° WSW 16:47:56 10° S
Meteor 2-4 Rocket 3.9 16:37:49 10° SSW 16:43:49 69° W 16:49:43 10° N
Cosmos 1378 3.5 16:41:02 10° S 16:44:50 71° E 16:48:34 10° NNE
USA 215 4.0 16:39:27 10° E 16:45:47 52° SSE 16:52:09 10° SW
Cosmos 2263 Rocket 3.8 16:41:56 10° W 16:45:47 18° SW 16:49:40 10° S
Cosmos 468 Rocket 4.1 16:41:22 10° SSW 16:46:42 65° WNW 16:51:59 10° N
